Time,TemperatureF,DewpointF,PressureIn,WindDirection,WindDirectionDegrees,WindSpeedMPH,WindSpeedGustMPH,Humidity,HourlyPrecipIn,Conditions,Clouds,dailyrainin,SoftwareType,DateUTC
2013-08-12 00:01:00,83.8,74.3,30.10,ENE,77,0.9,2.2,73,0.00,,---,0.00,VWS V13.01,2013-08-12 04:01:00,
2013-08-12 00:02:00,83.7,74.3,30.10,ESE,111,0.6,1.9,73,0.00,,---,0.00,VWS V13.01,2013-08-12 04:02:00,
2013-08-12 00:06:00,83.6,74.2,30.10,ESE,108,0.0,4.7,74,0.00,,---,0.00,VWS V13.01,2013-08-12 04:06:00,
2013-08-12 00:07:00,83.7,74.3,30.10,ESE,108,0.0,0.0,74,0.00,,---,0.00,VWS V13.01,2013-08-12 04:07:00,
2013-08-12 00:12:00,83.9,74.4,30.10,SE,127,2.1,3.6,73,0.00,,---,0.00,VWS V13.01,2013-08-12 04:12:00,
2013-08-12 00:17:00,83.9,75.1,30.10,SSE,148,5.5,8.0,75,0.00,,---,0.00,VWS V13.01,2013-08-12 04:17:00,
2013-08-12 00:22:00,83.5,75.0,30.10,SSE,156,2.5,4.2,76,0.00,,---,0.00,VWS V13.01,2013-08-12 04:22:00,
2013-08-12 00:27:00,83.4,74.9,30.10,SE,125,0.6,2.7,76,0.00,,---,0.00,VWS V13.01,2013-08-12 04:27:00,
2013-08-12 00:32:00,83.5,75.1,30.10,East,80,0.0,3.5,76,0.00,,---,0.00,VWS V13.01,2013-08-12 04:32:00,
2013-08-12 00:37:00,83.3,75.0,30.10,SE,146,0.7,2.6,76,0.00,,---,0.00,VWS V13.01,2013-08-12 04:37:00,
2013-08-12 00:42:00,83.2,74.7,30.10,ESE,108,0.0,4.8,76,0.00,,---,0.00,VWS V13.01,2013-08-12 04:42:00,
2013-08-12 00:47:00,83.4,74.8,30.10,ESE,108,0.0,0.0,75,0.00,,---,0.00,VWS V13.01,2013-08-12 04:47:00,
2013-08-12 00:52:00,83.4,74.6,30.09,SE,141,1.7,4.1,75,0.00,,---,0.00,VWS V13.01,2013-08-12 04:52:00,
2013-08-12 00:57:00,83.5,74.8,30.09,ESE,107,4.2,4.2,75,0.00,,---,0.00,VWS V13.01,2013-08-12 04:57:00,
2013-08-12 01:03:00,83.4,74.8,30.09,ESE,108,3.4,6.5,76,0.00,,---,0.00,VWS V13.01,2013-08-12 05:03:00,
2013-08-12 01:08:00,83.2,74.9,30.09,East,83,1.7,3.9,76,0.00,,---,0.00,VWS V13.01,2013-08-12 05:08:00,
2013-08-12 01:13:00,83.4,75.4,30.09,SE,127,4.4,5.4,77,0.00,,---,0.00,VWS V13.01,2013-08-12 05:13:00,
2013-08-12 01:18:00,83.2,75.2,30.09,SE,139,5.3,5.3,77,0.00,,---,0.00,VWS V13.01,2013-08-12 05:18:00,
2013-08-12 01:23:00,83.0,75.1,30.09,ESE,110,3.3,4.0,77,0.00,,---,0.00,VWS V13.01,2013-08-12 05:23:00,
2013-08-12 01:28:00,83.2,75.5,30.09,ESE,108,1.4,3.4,78,0.00,,---,0.00,VWS V13.01,2013-08-12 05:28:00,
2013-08-12 01:33:00,83.0,75.3,30.08,East,86,0.6,3.3,78,0.00,,---,0.00,VWS V13.01,2013-08-12 05:33:00,
2013-08-12 01:38:00,83.2,75.3,30.08,East,87,2.9,3.5,77,0.00,,---,0.00,VWS V13.01,2013-08-12 05:38:00,
2013-08-12 01:43:00,83.2,75.0,30.09,SE,125,2.2,3.9,76,0.00,,---,0.00,VWS V13.01,2013-08-12 05:43:00,
2013-08-12 01:48:00,83.0,74.3,30.09,NE,45,0.9,3.0,75,0.00,,---,0.00,VWS V13.01,2013-08-12 05:48:00,
2013-08-12 01:53:00,82.8,73.6,30.09,East,91,3.5,5.2,74,0.00,,---,0.00,VWS V13.01,2013-08-12 05:53:00,
2013-08-12 01:58:00,83.2,74.0,30.09,ESE,122,1.2,5.0,74,0.00,,---,0.00,VWS V13.01,2013-08-12 05:58:00,
2013-08-12 02:03:00,83.1,73.9,30.09,SE,139,3.1,7.4,74,0.00,,---,0.00,VWS V13.01,2013-08-12 06:03:00,
2013-08-12 02:08:00,83.1,74.0,30.09,SE,129,4.5,4.8,74,0.00,,---,0.00,VWS V13.01,2013-08-12 06:08:00,
2013-08-12 02:13:00,83.2,73.8,30.09,NE,45,2.2,4.9,74,0.00,,---,0.00,VWS V13.01,2013-08-12 06:13:00,
2013-08-12 02:18:00,83.1,73.7,30.09,ESE,114,0.4,2.3,73,0.00,,---,0.00,VWS V13.01,2013-08-12 06:18:00,
2013-08-12 02:23:00,83.2,73.8,30.09,ESE,112,4.4,5.7,73,0.00,,---,0.00,VWS V13.01,2013-08-12 06:23:00,
2013-08-12 02:28:00,83.0,73.8,30.08,SE,124,4.7,4.7,74,0.00,,---,0.00,VWS V13.01,2013-08-12 06:28:00,
2013-08-12 02:33:00,83.1,74.1,30.08,ENE,62,3.3,4.0,74,0.00,,---,0.00,VWS V13.01,2013-08-12 06:33:00,
2013-08-12 02:38:00,82.9,74.1,30.08,SSE,167,1.2,2.1,75,0.00,,---,0.00,VWS V13.01,2013-08-12 06:38:00,
2013-08-12 02:43:00,82.9,74.1,30.08,East,86,0.0,0.0,75,0.00,,---,0.00,VWS V13.01,2013-08-12 06:43:00,
2013-08-12 02:48:00,82.6,73.9,30.08,East,93,0.0,0.0,75,0.00,,---,0.00,VWS V13.01,2013-08-12 06:48:00,
2013-08-12 02:53:00,82.4,73.6,30.08,ESE,114,2.7,2.7,75,0.00,,---,0.00,VWS V13.01,2013-08-12 06:53:00,
2013-08-12 02:58:00,82.4,73.6,30.08,East,82,1.3,2.7,75,0.00,,---,0.00,VWS V13.01,2013-08-12 06:58:00,
2013-08-12 03:04:00,82.2,73.3,30.08,ENE,73,2.5,2.5,75,0.00,,---,0.00,VWS V13.01,2013-08-12 07:04:00,
2013-08-12 03:09:00,82.3,73.5,30.08,ENE,69,0.8,1.6,75,0.00,,---,0.00,VWS V13.01,2013-08-12 07:09:00,
2013-08-12 03:14:00,82.4,73.7,30.08,East,79,3.4,4.7,75,0.00,,---,0.00,VWS V13.01,2013-08-12 07:14:00,
2013-08-12 03:19:00,82.2,73.4,30.08,ENE,76,1.0,1.2,75,0.00,,---,0.00,VWS V13.01,2013-08-12 07:19:00,
2013-08-12 03:24:00,82.2,73.5,30.08,East,97,2.5,2.7,75,0.00,,---,0.00,VWS V13.01,2013-08-12 07:24:00,
2013-08-12 03:29:00,81.9,73.2,30.08,ENE,60,0.0,0.0,75,0.00,,---,0.00,VWS V13.01,2013-08-12 07:29:00,
2013-08-12 03:34:00,82.1,73.3,30.08,East,100,1.1,1.1,75,0.00,,---,0.00,VWS V13.01,2013-08-12 07:34:00,
2013-08-12 03:39:00,82.0,73.2,30.08,ESE,112,1.2,2.9,75,0.00,,---,0.00,VWS V13.01,2013-08-12 07:39:00,
2013-08-12 03:44:00,81.7,72.8,30.07,East,83,2.7,4.3,74,0.00,,---,0.00,VWS V13.01,2013-08-12 07:44:00,
2013-08-12 03:49:00,82.0,73.1,30.07,East,82,0.9,2.1,75,0.00,,---,0.00,VWS V13.01,2013-08-12 07:49:00,
2013-08-12 03:54:00,81.8,72.8,30.07,East,79,1.2,3.5,74,0.00,,---,0.00,VWS V13.01,2013-08-12 07:54:00,
2013-08-12 03:59:00,81.9,72.9,30.07,ESE,112,0.7,3.0,74,0.00,,---,0.00,VWS V13.01,2013-08-12 07:59:00,
2013-08-12 04:04:00,81.8,72.6,30.07,ENE,77,1.4,3.6,74,0.00,,---,0.00,VWS V13.01,2013-08-12 08:04:00,
2013-08-12 04:09:00,81.7,72.5,30.07,East,90,1.4,4.4,74,0.00,,---,0.00,VWS V13.01,2013-08-12 08:09:00,
2013-08-12 04:14:00,81.5,72.3,30.08,East,96,1.4,3.2,74,0.00,,---,0.00,VWS V13.01,2013-08-12 08:14:00,
2013-08-12 04:19:00,81.7,72.4,30.08,ESE,112,2.0,3.4,74,0.00,,---,0.00,VWS V13.01,2013-08-12 08:19:00,
2013-08-12 04:24:00,81.6,72.4,30.07,ESE,122,1.6,1.6,74,0.00,,---,0.00,VWS V13.01,2013-08-12 08:24:00,
2013-08-12 04:29:00,81.3,72.2,30.07,NE,53,0.0,0.0,74,0.00,,---,0.00,VWS V13.01,2013-08-12 08:29:00,
2013-08-12 04:34:00,81.3,72.2,30.07,NE,51,1.7,3.4,74,0.00,,---,0.00,VWS V13.01,2013-08-12 08:34:00,
2013-08-12 04:39:00,81.4,72.2,30.07,ENE,65,0.0,0.0,74,0.00,,---,0.00,VWS V13.01,2013-08-12 08:39:00,
2013-08-12 04:44:00,81.4,72.3,30.07,ENE,76,0.0,0.2,74,0.00,,---,0.00,VWS V13.01,2013-08-12 08:44:00,
2013-08-12 04:50:00,81.5,72.4,30.07,ENE,72,0.0,0.0,74,0.00,,---,0.00,VWS V13.01,2013-08-12 08:50:00,
2013-08-12 04:55:00,81.1,72.1,30.07,ENE,72,0.0,0.0,74,0.00,,---,0.00,VWS V13.01,2013-08-12 08:55:00,
2013-08-12 05:00:00,81.3,72.5,30.07,ENE,73,0.0,0.0,75,0.00,,---,0.00,VWS V13.01,2013-08-12 09:00:00,
2013-08-12 05:05:00,80.9,72.3,30.07,ENE,65,0.0,0.9,75,0.00,,---,0.00,VWS V13.01,2013-08-12 09:05:00,
2013-08-12 05:10:00,81.1,72.6,30.07,ENE,65,0.0,0.0,76,0.00,,---,0.00,VWS V13.01,2013-08-12 09:10:00,
2013-08-12 05:15:00,80.8,72.5,30.06,ESE,111,0.0,0.0,76,0.00,,---,0.00,VWS V13.01,2013-08-12 09:15:00,
2013-08-12 05:20:00,80.9,72.6,30.06,East,82,1.1,1.7,76,0.00,,---,0.00,VWS V13.01,2013-08-12 09:20:00,
2013-08-12 05:25:00,81.0,72.7,30.07,ESE,104,0.0,0.0,76,0.00,,---,0.00,VWS V13.01,2013-08-12 09:25:00,
2013-08-12 05:30:00,81.2,73.0,30.07,ENE,65,0.0,1.2,76,0.00,,---,0.00,VWS V13.01,2013-08-12 09:30:00,
2013-08-12 05:35:00,81.1,73.0,30.07,SSE,148,2.7,3.7,76,0.00,,---,0.00,VWS V13.01,2013-08-12 09:35:00,
2013-08-12 05:40:00,81.2,73.4,30.06,SE,129,2.8,3.5,77,0.00,,---,0.00,VWS V13.01,2013-08-12 09:40:00,
2013-08-12 05:45:00,81.2,73.3,30.07,East,89,0.0,0.0,77,0.00,,---,0.00,VWS V13.01,2013-08-12 09:45:00,
2013-08-12 05:50:00,81.3,73.4,30.07,NE,52,0.0,1.8,77,0.00,,---,0.00,VWS V13.01,2013-08-12 09:50:00,
2013-08-12 05:55:00,81.2,73.3,30.07,NE,53,0.0,1.2,77,0.00,,---,0.00,VWS V13.01,2013-08-12 09:55:00,
2013-08-12 06:00:00,81.0,73.0,30.07,ESE,107,0.0,1.0,77,0.00,,---,0.00,VWS V13.01,2013-08-12 10:00:00,
2013-08-12 06:05:00,81.1,72.9,30.07,ESE,115,1.7,1.7,76,0.00,,---,0.00,VWS V13.01,2013-08-12 10:05:00,
2013-08-12 06:10:00,80.9,72.7,30.07,East,79,0.0,0.0,76,0.00,,---,0.00,VWS V13.01,2013-08-12 10:10:00,
2013-08-12 06:15:00,81.1,72.8,30.07,East,79,0.0,0.0,76,0.00,,---,0.00,VWS V13.01,2013-08-12 10:15:00,
2013-08-12 06:20:00,80.9,72.7,30.07,ENE,72,0.4,0.5,76,0.00,,---,0.00,VWS V13.01,2013-08-12 10:20:00,
2013-08-12 06:25:00,81.0,72.8,30.08,ENE,77,0.0,0.0,76,0.00,,---,0.00,VWS V13.01,2013-08-12 10:25:00,
2013-08-12 06:30:00,81.3,73.3,30.08,ESE,110,0.9,1.7,77,0.00,,---,0.00,VWS V13.01,2013-08-12 10:30:00,
2013-08-12 06:35:00,81.2,73.5,30.08,ENE,77,1.8,2.4,77,0.00,,---,0.00,VWS V13.01,2013-08-12 10:35:00,
2013-08-12 06:41:00,81.1,72.9,30.08,ESE,112,3.4,3.5,76,0.00,,---,0.00,VWS V13.01,2013-08-12 10:41:00,
2013-08-12 06:46:00,81.1,72.6,30.08,ESE,114,0.0,0.0,76,0.00,,---,0.00,VWS V13.01,2013-08-12 10:46:00,
2013-08-12 06:51:00,81.4,72.8,30.08,ENE,77,1.1,1.6,75,0.00,,---,0.00,VWS V13.01,2013-08-12 10:51:00,
2013-08-12 06:56:00,81.4,72.8,30.08,NE,48,0.0,0.0,75,0.00,,---,0.00,VWS V13.01,2013-08-12 10:56:00,
2013-08-12 07:01:00,81.4,73.0,30.08,ENE,69,3.9,3.9,76,0.00,,---,0.00,VWS V13.01,2013-08-12 11:01:00,
2013-08-12 07:06:00,81.4,73.2,30.08,East,101,3.4,3.4,76,0.00,,---,0.00,VWS V13.01,2013-08-12 11:06:00,
2013-08-12 07:11:00,81.4,73.2,30.08,NE,55,1.8,1.9,76,0.00,,---,0.00,VWS V13.01,2013-08-12 11:11:00,
2013-08-12 07:16:00,81.4,73.3,30.08,NE,41,0.0,2.1,77,0.00,,---,0.00,VWS V13.01,2013-08-12 11:16:00,
2013-08-12 07:21:00,81.4,73.3,30.08,ENE,69,0.0,2.3,77,0.00,,---,0.00,VWS V13.01,2013-08-12 11:21:00,
2013-08-12 07:26:00,81.5,73.5,30.08,ENE,72,1.2,1.7,77,0.00,,---,0.00,VWS V13.01,2013-08-12 11:26:00,
2013-08-12 07:31:00,81.4,73.6,30.08,NNE,22,0.0,0.0,77,0.00,,---,0.00,VWS V13.01,2013-08-12 11:31:00,
2013-08-12 07:36:00,81.6,74.0,30.08,East,93,1.7,2.4,78,0.00,,---,0.00,VWS V13.01,2013-08-12 11:36:00,
2013-08-12 07:41:00,82.1,74.6,30.08,East,91,0.0,0.0,78,0.00,,---,0.00,VWS V13.01,2013-08-12 11:41:00,
2013-08-12 07:46:00,82.4,74.9,30.08,East,86,1.8,2.7,78,0.00,,---,0.00,VWS V13.01,2013-08-12 11:46:00,
2013-08-12 07:51:00,82.5,74.5,30.08,SE,141,4.1,4.8,77,0.00,,---,0.00,VWS V13.01,2013-08-12 11:51:00,
2013-08-12 07:56:00,82.8,74.5,30.09,East,98,3.0,6.3,76,0.00,,---,0.00,VWS V13.01,2013-08-12 11:56:00,
2013-08-12 08:01:00,83.0,74.2,30.09,East,86,2.7,6.0,75,0.00,,---,0.00,VWS V13.01,2013-08-12 12:01:00,
2013-08-12 08:06:00,83.5,74.7,30.09,ESE,117,1.2,1.2,75,0.00,,---,0.00,VWS V13.01,2013-08-12 12:06:00,
2013-08-12 08:11:00,83.8,74.2,30.09,East,93,0.6,1.9,73,0.00,,---,0.00,VWS V13.01,2013-08-12 12:11:00,
2013-08-12 08:16:00,84.2,73.9,30.09,ENE,66,1.3,4.8,71,0.00,,---,0.00,VWS V13.01,2013-08-12 12:16:00,
2013-08-12 08:21:00,84.2,73.7,30.09,ENE,70,1.3,4.6,71,0.00,,---,0.00,VWS V13.01,2013-08-12 12:21:00,
2013-08-12 08:26:00,83.8,73.7,30.09,ENE,66,6.4,6.8,72,0.00,,---,0.00,VWS V13.01,2013-08-12 12:26:00,
2013-08-12 08:31:00,83.6,74.0,30.09,East,90,4.5,5.1,73,0.00,,---,0.00,VWS V13.01,2013-08-12 12:31:00,
2013-08-12 08:37:00,83.9,74.2,30.09,NE,52,2.5,4.3,73,0.00,,---,0.00,VWS V13.01,2013-08-12 12:37:00,
2013-08-12 08:42:00,84.4,74.3,30.09,NE,41,1.2,5.3,72,0.00,,---,0.00,VWS V13.01,2013-08-12 12:42:00,
2013-08-12 08:47:00,84.5,74.1,30.09,East,97,4.7,7.7,71,0.00,,---,0.00,VWS V13.01,2013-08-12 12:47:00,
2013-08-12 08:52:00,85.0,74.5,30.09,East,98,2.2,2.2,71,0.00,,---,0.00,VWS V13.01,2013-08-12 12:52:00,
2013-08-12 08:57:00,84.7,74.2,30.09,East,96,3.2,10.1,71,0.00,,---,0.00,VWS V13.01,2013-08-12 12:57:00,
2013-08-12 09:02:00,85.4,75.2,30.09,SE,127,4.8,5.5,72,0.00,,---,0.00,VWS V13.01,2013-08-12 13:02:00,
2013-08-12 09:07:00,85.5,74.5,30.09,ESE,108,6.5,6.5,70,0.00,,---,0.00,VWS V13.01,2013-08-12 13:07:00,
2013-08-12 09:12:00,85.8,74.8,30.09,ESE,114,2.3,3.1,70,0.00,,---,0.00,VWS V13.01,2013-08-12 13:12:00,
2013-08-12 09:17:00,85.9,74.3,30.10,SE,127,5.2,6.0,68,0.00,,---,0.00,VWS V13.01,2013-08-12 13:17:00,
2013-08-12 09:22:00,85.7,73.9,30.09,ENE,63,6.8,8.5,68,0.00,,---,0.00,VWS V13.01,2013-08-12 13:22:00,
2013-08-12 09:27:00,85.7,74.2,30.09,ENE,66,5.5,7.8,69,0.00,,---,0.00,VWS V13.01,2013-08-12 13:27:00,
2013-08-12 09:32:00,85.5,74.7,30.09,ESE,117,3.9,4.5,70,0.00,,---,0.00,VWS V13.01,2013-08-12 13:32:00,
2013-08-12 09:37:00,85.5,74.2,30.09,East,101,8.3,8.8,69,0.00,,---,0.00,VWS V13.01,2013-08-12 13:37:00,
2013-08-12 09:42:00,85.8,74.0,30.09,ENE,70,4.5,4.7,68,0.00,,---,0.00,VWS V13.01,2013-08-12 13:42:00,
2013-08-12 09:47:00,86.1,73.4,30.09,East,98,6.1,7.4,66,0.00,,---,0.00,VWS V13.01,2013-08-12 13:47:00,
2013-08-12 09:52:00,85.8,73.4,30.09,East,97,4.3,7.6,67,0.00,,---,0.00,VWS V13.01,2013-08-12 13:52:00,
2013-08-12 09:57:00,86.0,73.4,30.09,ENE,73,1.7,8.9,66,0.00,,---,0.00,VWS V13.01,2013-08-12 13:57:00,
2013-08-12 10:02:00,86.4,73.9,30.09,SE,127,2.4,6.2,66,0.00,,---,0.00,VWS V13.01,2013-08-12 14:02:00,
2013-08-12 10:08:00,86.4,74.0,30.09,ENE,77,1.0,3.4,67,0.00,,---,0.00,VWS V13.01,2013-08-12 14:08:00,
2013-08-12 10:13:00,86.7,73.8,30.09,NNE,20,3.3,4.8,66,0.00,,---,0.00,VWS V13.01,2013-08-12 14:13:00,
2013-08-12 10:18:00,86.8,73.3,30.09,ENE,77,4.4,8.9,64,0.00,,---,0.00,VWS V13.01,2013-08-12 14:18:00,
2013-08-12 10:23:00,87.0,73.6,30.09,ESE,121,6.1,6.3,65,0.00,,---,0.00,VWS V13.01,2013-08-12 14:23:00,
2013-08-12 10:28:00,87.3,74.2,30.09,ESE,115,5.2,6.8,65,0.00,,---,0.00,VWS V13.01,2013-08-12 14:28:00,
2013-08-12 10:33:00,86.9,73.7,30.09,ESE,122,6.8,9.6,65,0.00,,---,0.00,VWS V13.01,2013-08-12 14:33:00,
2013-08-12 10:38:00,87.0,74.1,30.09,East,96,2.8,8.7,66,0.00,,---,0.00,VWS V13.01,2013-08-12 14:38:00,
2013-08-12 10:43:00,87.4,74.5,30.09,East,94,2.2,11.7,66,0.00,,---,0.00,VWS V13.01,2013-08-12 14:43:00,
2013-08-12 10:48:00,87.1,74.3,30.09,ESE,103,4.8,10.9,66,0.00,,---,0.00,VWS V13.01,2013-08-12 14:48:00,
2013-08-12 10:53:00,87.0,73.4,30.09,ESE,108,10.4,10.4,64,0.00,,---,0.00,VWS V13.01,2013-08-12 14:53:00,
2013-08-12 10:58:00,87.1,74.2,30.09,ESE,104,4.8,10.9,66,0.00,,---,0.00,VWS V13.01,2013-08-12 14:58:00,
2013-08-12 11:03:00,87.3,74.2,30.08,SE,124,4.0,9.4,65,0.00,,---,0.00,VWS V13.01,2013-08-12 15:03:00,
2013-08-12 11:08:00,87.7,73.7,30.09,East,89,4.8,7.8,63,0.00,,---,0.00,VWS V13.01,2013-08-12 15:08:00,
2013-08-12 11:13:00,87.8,74.0,30.09,SE,129,3.6,5.0,64,0.00,,---,0.00,VWS V13.01,2013-08-12 15:13:00,
2013-08-12 11:18:00,87.9,74.0,30.09,SE,127,3.0,4.0,64,0.00,,---,0.00,VWS V13.01,2013-08-12 15:18:00,
2013-08-12 11:23:00,87.7,73.6,30.09,ESE,111,6.8,7.8,63,0.00,,---,0.00,VWS V13.01,2013-08-12 15:23:00,
2013-08-12 11:28:00,87.8,73.8,30.09,SE,132,6.7,7.6,63,0.00,,---,0.00,VWS V13.01,2013-08-12 15:28:00,
2013-08-12 11:34:00,87.8,73.7,30.09,SSE,167,2.4,5.2,63,0.00,,---,0.00,VWS V13.01,2013-08-12 15:34:00,
2013-08-12 11:39:00,87.9,73.3,30.09,SE,139,4.4,6.7,62,0.00,,---,0.00,VWS V13.01,2013-08-12 15:39:00,
2013-08-12 11:44:00,87.7,73.1,30.09,East,79,5.7,11.4,62,0.00,,---,0.00,VWS V13.01,2013-08-12 15:44:00,
2013-08-12 11:49:00,87.9,73.6,30.08,SE,128,6.7,7.6,63,0.00,,---,0.00,VWS V13.01,2013-08-12 15:49:00,
2013-08-12 11:54:00,87.9,74.1,30.08,ENE,58,5.5,9.7,64,0.00,,---,0.00,VWS V13.01,2013-08-12 15:54:00,
2013-08-12 11:59:00,87.8,74.4,30.08,ESE,118,8.8,10.4,65,0.00,,---,0.00,VWS V13.01,2013-08-12 15:59:00,
2013-08-12 12:04:00,88.2,74.8,30.08,ESE,107,5.5,5.5,65,0.00,,---,0.00,VWS V13.01,2013-08-12 16:04:00,
2013-08-12 12:09:00,87.7,74.8,30.08,ESE,114,6.2,10.1,66,0.00,,---,0.00,VWS V13.01,2013-08-12 16:09:00,
2013-08-12 12:14:00,87.5,75.3,30.07,SSW,194,2.7,5.9,67,0.00,,---,0.00,VWS V13.01,2013-08-12 16:14:00,
2013-08-12 12:19:00,87.3,75.4,30.07,ESE,110,6.5,7.0,68,0.00,,---,0.00,VWS V13.01,2013-08-12 16:19:00,
2013-08-12 12:24:00,87.5,75.2,30.07,ESE,114,4.4,8.5,67,0.00,,---,0.00,VWS V13.01,2013-08-12 16:24:00,
2013-08-12 12:29:00,87.9,74.5,30.07,East,94,4.7,11.6,65,0.00,,---,0.00,VWS V13.01,2013-08-12 16:29:00,
2013-08-12 12:34:00,87.7,74.3,30.07,ESE,120,4.5,11.7,65,0.00,,---,0.00,VWS V13.01,2013-08-12 16:34:00,
2013-08-12 12:39:00,88.1,74.7,30.07,East,94,7.7,8.6,65,0.00,,---,0.00,VWS V13.01,2013-08-12 16:39:00,
2013-08-12 12:44:00,88.1,74.4,30.07,SE,138,8.7,10.3,64,0.00,,---,0.00,VWS V13.01,2013-08-12 16:44:00,
2013-08-12 12:49:00,87.9,74.4,30.06,East,87,7.8,11.7,64,0.00,,---,0.00,VWS V13.01,2013-08-12 16:49:00,
2013-08-12 12:54:00,88.0,74.3,30.06,ESE,118,8.1,8.1,64,0.00,,---,0.00,VWS V13.01,2013-08-12 16:54:00,
2013-08-12 12:59:00,88.2,75.1,30.06,East,94,7.7,8.3,65,0.00,,---,0.00,VWS V13.01,2013-08-12 16:59:00,
2013-08-12 13:04:00,87.7,74.8,30.06,ESE,111,3.4,12.6,66,0.00,,---,0.00,VWS V13.01,2013-08-12 17:04:00,
2013-08-12 13:09:00,87.8,74.8,30.06,NW,314,2.9,9.0,65,0.00,,---,0.00,VWS V13.01,2013-08-12 17:09:00,
2013-08-12 13:14:00,88.1,74.9,30.06,East,84,1.9,7.5,65,0.00,,---,0.00,VWS V13.01,2013-08-12 17:14:00,
2013-08-12 13:19:00,88.4,74.8,30.05,ENE,62,5.3,8.9,64,0.00,,---,0.00,VWS V13.01,2013-08-12 17:19:00,
2013-08-12 13:24:00,88.3,74.7,30.05,ENE,60,5.1,8.3,64,0.00,,---,0.00,VWS V13.01,2013-08-12 17:24:00,
2013-08-12 13:29:00,88.0,73.9,30.05,SSE,167,2.7,11.1,63,0.00,,---,0.00,VWS V13.01,2013-08-12 17:29:00,
2013-08-12 13:35:00,88.1,74.5,30.05,East,94,7.8,9.2,64,0.00,,---,0.00,VWS V13.01,2013-08-12 17:35:00,
2013-08-12 13:40:00,87.9,74.0,30.05,ESE,118,4.8,11.9,64,0.00,,---,0.00,VWS V13.01,2013-08-12 17:40:00,
2013-08-12 13:45:00,87.7,72.8,30.05,SE,128,8.7,11.3,62,0.00,,---,0.00,VWS V13.01,2013-08-12 17:45:00,
2013-08-12 13:50:00,88.0,73.4,30.05,ENE,65,4.2,9.8,62,0.00,,---,0.00,VWS V13.01,2013-08-12 17:50:00,
2013-08-12 13:55:00,88.1,73.2,30.05,SSE,166,3.8,6.2,61,0.00,,---,0.00,VWS V13.01,2013-08-12 17:55:00,
2013-08-12 14:00:00,88.2,72.8,30.05,East,91,6.2,11.9,60,0.00,,---,0.00,VWS V13.01,2013-08-12 18:00:00,
2013-08-12 14:05:00,88.2,72.7,30.05,SE,124,7.5,8.5,60,0.00,,---,0.00,VWS V13.01,2013-08-12 18:05:00,
2013-08-12 14:10:00,88.4,72.8,30.04,SE,125,6.7,9.3,60,0.00,,---,0.00,VWS V13.01,2013-08-12 18:10:00,
2013-08-12 14:16:00,88.7,72.8,30.04,NE,49,2.4,10.7,60,0.00,,---,0.00,VWS V13.01,2013-08-12 18:16:00,
2013-08-12 14:21:00,88.0,72.6,30.04,ESE,117,12.3,14.5,60,0.00,,---,0.00,VWS V13.01,2013-08-12 18:21:00,
2013-08-12 14:26:00,88.0,72.4,30.03,SE,135,8.2,10.3,60,0.00,,---,0.00,VWS V13.01,2013-08-12 18:26:00,
2013-08-12 14:31:00,88.3,72.4,30.03,SSE,149,2.7,5.2,59,0.00,,---,0.00,VWS V13.01,2013-08-12 18:31:00,
2013-08-12 14:36:00,89.0,72.5,30.03,ESE,111,3.2,3.5,58,0.00,,---,0.00,VWS V13.01,2013-08-12 18:36:00,
2013-08-12 14:41:00,89.2,72.1,30.02,ESE,118,6.2,6.2,57,0.00,,---,0.00,VWS V13.01,2013-08-12 18:41:00,
2013-08-12 14:47:00,89.0,72.7,30.02,East,83,4.6,6.2,59,0.00,,---,0.00,VWS V13.01,2013-08-12 18:47:00,
2013-08-12 14:52:00,88.9,72.9,30.02,East,100,3.2,5.8,59,0.00,,---,0.00,VWS V13.01,2013-08-12 18:52:00,
2013-08-12 14:57:00,88.8,73.0,30.02,ESE,108,1.7,3.8,60,0.00,,---,0.00,VWS V13.01,2013-08-12 18:57:00,
2013-08-12 15:02:00,89.2,73.5,30.02,ESE,105,10.8,10.8,60,0.00,,---,0.00,VWS V13.01,2013-08-12 19:02:00,
2013-08-12 15:07:00,88.9,73.5,30.02,ESE,105,5.8,7.5,60,0.00,,---,0.00,VWS V13.01,2013-08-12 19:07:00,
2013-08-12 15:12:00,88.7,73.3,30.02,East,101,4.2,9.2,60,0.00,,---,0.00,VWS V13.01,2013-08-12 19:12:00,
2013-08-12 15:17:00,88.0,73.0,30.01,ENE,73,4.7,8.2,61,0.00,,---,0.00,VWS V13.01,2013-08-12 19:17:00,
2013-08-12 15:22:00,87.5,72.9,30.02,East,89,4.2,9.4,62,0.00,,---,0.00,VWS V13.01,2013-08-12 19:22:00,
2013-08-12 15:27:00,87.4,72.8,30.02,East,98,7.3,11.0,62,0.00,,---,0.00,VWS V13.01,2013-08-12 19:27:00,
2013-08-12 15:32:00,86.9,73.0,30.02,NE,42,3.5,6.5,63,0.00,,---,0.00,VWS V13.01,2013-08-12 19:32:00,
2013-08-12 15:37:00,86.9,72.8,30.01,SE,132,5.6,6.5,63,0.00,,---,0.00,VWS V13.01,2013-08-12 19:37:00,
2013-08-12 15:42:00,87.0,72.9,30.01,ESE,118,2.0,4.0,63,0.00,,---,0.00,VWS V13.01,2013-08-12 19:42:00,
2013-08-12 15:47:00,86.9,73.7,30.01,ESE,108,2.4,5.3,65,0.00,,---,0.00,VWS V13.01,2013-08-12 19:47:00,
2013-08-12 15:52:00,87.1,73.9,30.01,East,100,1.7,9.0,65,0.00,,---,0.00,VWS V13.01,2013-08-12 19:52:00,
2013-08-12 15:57:00,87.3,73.7,30.01,ENE,70,5.7,7.7,64,0.00,,---,0.00,VWS V13.01,2013-08-12 19:57:00,
2013-08-12 16:02:00,87.3,73.7,30.01,SE,141,2.5,7.2,64,0.00,,---,0.00,VWS V13.01,2013-08-12 20:02:00,
2013-08-12 16:07:00,87.4,73.7,30.01,ESE,108,6.6,8.3,64,0.00,,---,0.00,VWS V13.01,2013-08-12 20:07:00,
2013-08-12 16:12:00,86.8,74.1,30.01,SE,129,12.1,12.1,66,0.00,,---,0.00,VWS V13.01,2013-08-12 20:12:00,
2013-08-12 16:17:00,86.7,74.5,30.01,ESE,117,10.6,10.6,67,0.00,,---,0.00,VWS V13.01,2013-08-12 20:17:00,
2013-08-12 16:22:00,86.5,74.9,30.01,SE,139,1.1,8.6,68,0.00,,---,0.00,VWS V13.01,2013-08-12 20:22:00,
2013-08-12 16:27:00,86.9,75.0,30.00,ENE,66,4.3,5.7,68,0.00,,---,0.00,VWS V13.01,2013-08-12 20:27:00,
2013-08-12 16:32:00,87.3,74.9,30.00,SE,125,5.7,9.2,67,0.00,,---,0.00,VWS V13.01,2013-08-12 20:32:00,
2013-08-12 16:37:00,87.3,74.1,30.00,East,97,4.9,7.7,65,0.00,,---,0.00,VWS V13.01,2013-08-12 20:37:00,
2013-08-12 16:42:00,87.1,74.3,30.01,East,90,4.3,8.0,66,0.00,,---,0.00,VWS V13.01,2013-08-12 20:42:00,
2013-08-12 16:47:00,87.5,74.8,30.00,ESE,111,3.0,10.4,66,0.00,,---,0.00,VWS V13.01,2013-08-12 20:47:00,
2013-08-12 16:52:00,86.9,75.0,30.00,SE,135,3.2,9.1,68,0.00,,---,0.00,VWS V13.01,2013-08-12 20:52:00,
2013-08-12 16:57:00,87.3,76.0,30.00,SE,139,4.8,7.0,69,0.00,,---,0.00,VWS V13.01,2013-08-12 20:57:00,
2013-08-12 17:02:00,86.8,74.5,30.00,ESE,118,4.7,9.2,67,0.00,,---,0.00,VWS V13.01,2013-08-12 21:02:00,
2013-08-12 17:07:00,86.7,75.0,30.00,East,98,4.0,5.8,68,0.00,,---,0.00,VWS V13.01,2013-08-12 21:07:00,
2013-08-12 17:12:00,86.6,74.3,30.00,ESE,105,8.7,8.7,67,0.00,,---,0.00,VWS V13.01,2013-08-12 21:12:00,
2013-08-12 17:17:00,86.8,74.0,30.00,ESE,115,3.5,8.3,66,0.00,,---,0.00,VWS V13.01,2013-08-12 21:17:00,
2013-08-12 17:22:00,87.0,74.4,29.99,SE,125,7.6,11.6,66,0.00,,---,0.00,VWS V13.01,2013-08-12 21:22:00,
2013-08-12 17:27:00,86.9,75.1,29.99,East,89,4.5,10.4,68,0.00,,---,0.00,VWS V13.01,2013-08-12 21:27:00,
2013-08-12 17:32:00,87.1,75.8,29.99,ENE,68,5.7,8.0,69,0.00,,---,0.00,VWS V13.01,2013-08-12 21:32:00,
2013-08-12 17:37:00,87.0,75.8,29.99,East,98,6.7,8.5,70,0.00,,---,0.00,VWS V13.01,2013-08-12 21:37:00,
2013-08-12 17:42:00,86.5,75.6,30.00,SE,138,8.4,9.4,70,0.00,,---,0.00,VWS V13.01,2013-08-12 21:42:00,
2013-08-12 17:47:00,86.2,75.7,29.99,East,90,4.0,7.6,71,0.00,,---,0.00,VWS V13.01,2013-08-12 21:47:00,
2013-08-12 17:52:00,85.9,74.6,30.00,East,94,8.8,11.5,69,0.00,,---,0.00,VWS V13.01,2013-08-12 21:52:00,
2013-08-12 17:58:00,86.2,75.3,30.00,ESE,121,8.8,8.8,70,0.00,,---,0.00,VWS V13.01,2013-08-12 21:58:00,
2013-08-12 18:03:00,86.0,74.2,30.00,East,101,3.0,8.8,68,0.00,,---,0.00,VWS V13.01,2013-08-12 22:03:00,
2013-08-12 18:08:00,86.5,74.0,30.00,ESE,114,8.1,8.9,66,0.00,,---,0.00,VWS V13.01,2013-08-12 22:08:00,
2013-08-12 18:13:00,86.6,74.3,30.00,ENE,76,4.3,8.7,67,0.00,,---,0.00,VWS V13.01,2013-08-12 22:13:00,
2013-08-12 18:18:00,86.3,73.5,30.00,ESE,111,5.4,8.9,66,0.00,,---,0.00,VWS V13.01,2013-08-12 22:18:00,
2013-08-12 18:23:00,86.2,74.6,30.00,ENE,76,3.8,8.5,68,0.00,,---,0.00,VWS V13.01,2013-08-12 22:23:00,
2013-08-12 18:28:00,85.8,74.8,30.00,East,89,9.8,10.3,70,0.00,,---,0.00,VWS V13.01,2013-08-12 22:28:00,
2013-08-12 18:33:00,85.7,75.0,30.00,ENE,75,5.7,9.2,70,0.00,,---,0.00,VWS V13.01,2013-08-12 22:33:00,
2013-08-12 18:38:00,85.5,74.5,30.00,ESE,111,10.3,11.9,70,0.00,,---,0.00,VWS V13.01,2013-08-12 22:38:00,
2013-08-12 18:43:00,85.5,74.9,30.00,SE,132,3.2,8.3,71,0.00,,---,0.00,VWS V13.01,2013-08-12 22:43:00,
2013-08-12 18:48:00,85.5,75.0,30.00,East,82,1.6,6.0,71,0.00,,---,0.00,VWS V13.01,2013-08-12 22:48:00,
2013-08-12 18:53:00,85.5,75.2,30.00,East,100,3.1,10.2,71,0.00,,---,0.00,VWS V13.01,2013-08-12 22:53:00,
2013-08-12 18:58:00,85.3,75.2,30.00,East,87,6.6,9.9,72,0.00,,---,0.00,VWS V13.01,2013-08-12 22:58:00,
2013-08-12 19:03:00,85.0,75.0,30.00,East,94,5.8,10.6,72,0.00,,---,0.00,VWS V13.01,2013-08-12 23:03:00,
2013-08-12 19:08:00,84.8,74.7,30.00,SE,139,3.8,9.1,72,0.00,,---,0.00,VWS V13.01,2013-08-12 23:08:00,
2013-08-12 19:13:00,85.1,75.0,30.00,ESE,111,3.1,5.7,72,0.00,,---,0.00,VWS V13.01,2013-08-12 23:13:00,
2013-08-12 19:18:00,85.1,75.1,30.00,East,91,4.7,5.2,72,0.00,,---,0.00,VWS V13.01,2013-08-12 23:18:00,
2013-08-12 19:23:00,85.2,75.3,30.00,East,100,9.7,9.8,72,0.00,,---,0.00,VWS V13.01,2013-08-12 23:23:00,
2013-08-12 19:28:00,85.0,75.2,30.00,ESE,115,7.2,8.1,73,0.00,,---,0.00,VWS V13.01,2013-08-12 23:28:00,
2013-08-12 19:33:00,85.2,75.4,30.00,East,100,3.1,6.3,73,0.00,,---,0.00,VWS V13.01,2013-08-12 23:33:00,
2013-08-12 19:38:00,84.7,74.7,30.00,East,86,5.0,5.3,72,0.00,,---,0.00,VWS V13.01,2013-08-12 23:38:00,
2013-08-12 19:43:00,84.6,74.8,30.00,SE,125,2.6,6.5,72,0.00,,---,0.00,VWS V13.01,2013-08-12 23:43:00,
2013-08-12 19:48:00,84.4,74.5,29.99,ESE,121,4.4,7.0,72,0.00,,---,0.00,VWS V13.01,2013-08-12 23:48:00,
2013-08-12 19:53:00,84.2,74.3,29.99,East,89,6.8,7.9,72,0.00,,---,0.00,VWS V13.01,2013-08-12 23:53:00,
2013-08-12 19:58:00,84.2,74.5,29.99,East,96,2.2,6.0,73,0.00,,---,0.00,VWS V13.01,2013-08-12 23:58:00,
2013-08-12 20:03:00,84.3,74.9,29.99,ESE,103,5.2,8.3,74,0.00,,---,0.00,VWS V13.01,2013-08-13 00:03:00,
2013-08-12 20:08:00,84.2,75.0,29.99,SE,145,3.1,3.5,74,0.00,,---,0.00,VWS V13.01,2013-08-13 00:08:00,
2013-08-12 20:13:00,84.3,75.1,30.00,ESE,118,2.9,8.5,74,0.00,,---,0.00,VWS V13.01,2013-08-13 00:13:00,
2013-08-12 20:18:00,84.1,75.1,30.00,ESE,105,3.2,3.9,74,0.00,,---,0.00,VWS V13.01,2013-08-13 00:18:00,
2013-08-12 20:23:00,84.0,75.0,30.00,East,100,2.9,8.3,74,0.00,,---,0.00,VWS V13.01,2013-08-13 00:23:00,
2013-08-12 20:28:00,83.9,75.0,30.00,SE,125,2.6,9.0,75,0.00,,---,0.00,VWS V13.01,2013-08-13 00:28:00,
2013-08-12 20:33:00,83.8,74.9,30.00,East,96,4.0,9.1,75,0.00,,---,0.00,VWS V13.01,2013-08-13 00:33:00,
2013-08-12 20:38:00,83.8,74.9,30.00,SSE,148,3.5,6.5,75,0.00,,---,0.00,VWS V13.01,2013-08-13 00:38:00,
2013-08-12 20:43:00,84.0,75.3,30.00,SE,138,2.4,6.7,75,0.00,,---,0.00,VWS V13.01,2013-08-13 00:43:00,
2013-08-12 20:48:00,83.8,75.1,30.01,SE,127,4.5,5.3,75,0.00,,---,0.00,VWS V13.01,2013-08-13 00:48:00,
2013-08-12 20:53:00,83.9,74.8,30.01,ESE,108,6.3,6.5,74,0.00,,---,0.00,VWS V13.01,2013-08-13 00:53:00,
2013-08-12 20:58:00,83.6,74.5,30.01,East,101,3.2,5.3,74,0.00,,---,0.00,VWS V13.01,2013-08-13 00:58:00,
2013-08-12 21:03:00,83.6,74.5,30.01,ESE,112,8.7,10.0,74,0.00,,---,0.00,VWS V13.01,2013-08-13 01:03:00,
2013-08-12 21:08:00,83.8,74.9,30.01,ESE,117,3.8,5.8,75,0.00,,---,0.00,VWS V13.01,2013-08-13 01:08:00,
2013-08-12 21:13:00,83.6,74.7,30.01,ESE,115,3.0,5.2,75,0.00,,---,0.00,VWS V13.01,2013-08-13 01:13:00,
2013-08-12 21:18:00,83.6,74.9,30.01,ESE,104,3.9,7.2,75,0.00,,---,0.00,VWS V13.01,2013-08-13 01:18:00,
2013-08-12 21:23:00,83.6,75.2,30.01,East,97,4.2,5.4,76,0.00,,---,0.00,VWS V13.01,2013-08-13 01:23:00,
2013-08-12 21:28:00,83.7,75.4,30.01,SE,127,6.0,6.0,76,0.00,,---,0.00,VWS V13.01,2013-08-13 01:28:00,
2013-08-12 21:33:00,83.4,75.4,30.02,ESE,110,5.0,7.3,77,0.00,,---,0.00,VWS V13.01,2013-08-13 01:33:00,
2013-08-12 21:38:00,83.7,75.4,30.02,ENE,73,2.1,5.5,76,0.00,,---,0.00,VWS V13.01,2013-08-13 01:38:00,
2013-08-12 21:43:00,83.7,75.3,30.02,ENE,70,1.4,3.7,76,0.00,,---,0.00,VWS V13.01,2013-08-13 01:43:00,
2013-08-12 21:48:00,83.8,75.3,30.02,ESE,114,4.1,6.1,76,0.00,,---,0.00,VWS V13.01,2013-08-13 01:48:00,
2013-08-12 21:53:00,83.6,75.0,30.02,SE,135,2.2,3.7,75,0.00,,---,0.00,VWS V13.01,2013-08-13 01:53:00,
2013-08-12 21:58:00,83.9,75.4,30.02,East,94,4.2,4.7,76,0.00,,---,0.00,VWS V13.01,2013-08-13 01:58:00,
2013-08-12 22:03:00,83.8,75.7,30.02,ESE,122,2.8,7.1,77,0.00,,---,0.00,VWS V13.01,2013-08-13 02:03:00,
2013-08-12 22:08:00,83.8,75.8,30.02,East,97,1.6,4.2,77,0.00,,---,0.00,VWS V13.01,2013-08-13 02:08:00,
2013-08-12 22:13:00,83.7,76.0,30.02,ESE,122,4.3,5.1,78,0.00,,---,0.00,VWS V13.01,2013-08-13 02:13:00,
2013-08-12 22:18:00,83.5,76.1,30.02,SE,138,4.9,7.5,78,0.00,,---,0.00,VWS V13.01,2013-08-13 02:18:00,
2013-08-12 22:23:00,83.5,75.9,30.03,ESE,118,2.5,5.3,78,0.00,,---,0.00,VWS V13.01,2013-08-13 02:23:00,
2013-08-12 22:28:00,83.4,75.4,30.03,SE,132,1.1,6.6,77,0.00,,---,0.00,VWS V13.01,2013-08-13 02:28:00,
2013-08-12 22:33:00,83.6,75.3,30.03,East,91,6.4,6.7,76,0.00,,---,0.00,VWS V13.01,2013-08-13 02:33:00,
2013-08-12 22:38:00,83.3,74.8,30.03,ESE,117,2.7,5.9,76,0.00,,---,0.00,VWS V13.01,2013-08-13 02:38:00,
2013-08-12 22:43:00,83.4,74.7,30.03,SE,129,2.7,6.6,75,0.00,,---,0.00,VWS V13.01,2013-08-13 02:43:00,
2013-08-12 22:48:00,83.4,74.8,30.03,East,97,2.3,3.0,75,0.00,,---,0.00,VWS V13.01,2013-08-13 02:48:00,
2013-08-12 22:53:00,83.4,74.9,30.03,ESE,111,2.6,5.2,76,0.00,,---,0.00,VWS V13.01,2013-08-13 02:53:00,
2013-08-12 22:58:00,83.4,74.9,30.04,ESE,122,3.9,4.8,76,0.00,,---,0.00,VWS V13.01,2013-08-13 02:58:00,
2013-08-12 23:03:00,83.4,74.8,30.04,SE,141,0.6,1.9,75,0.00,,---,0.00,VWS V13.01,2013-08-13 03:03:00,
2013-08-12 23:09:00,83.4,74.8,30.04,ESE,114,4.0,4.3,75,0.00,,---,0.00,VWS V13.01,2013-08-13 03:09:00,
2013-08-12 23:14:00,83.5,75.1,30.04,ESE,111,1.7,5.8,76,0.00,,---,0.00,VWS V13.01,2013-08-13 03:14:00,
2013-08-12 23:19:00,83.4,75.2,30.04,SE,138,3.9,4.1,76,0.00,,---,0.00,VWS V13.01,2013-08-13 03:19:00,
2013-08-12 23:24:00,83.4,75.4,30.04,SE,125,2.1,4.2,77,0.00,,---,0.00,VWS V13.01,2013-08-13 03:24:00,
2013-08-12 23:29:00,83.2,75.4,30.04,SE,124,4.1,9.3,77,0.00,,---,0.00,VWS V13.01,2013-08-13 03:29:00,
2013-08-12 23:34:00,83.4,75.6,30.04,SE,129,4.0,5.6,78,0.00,,---,0.00,VWS V13.01,2013-08-13 03:34:00,
2013-08-12 23:40:00,83.4,75.7,30.03,ESE,112,2.9,2.9,78,0.00,,---,0.00,VWS V13.01,2013-08-13 03:40:00,
2013-08-12 23:45:00,83.2,75.5,30.04,ESE,121,2.7,5.1,78,0.00,,---,0.00,VWS V13.01,2013-08-13 03:45:00,
2013-08-12 23:53:00,83.3,75.5,30.03,ESE,104,3.0,3.6,77,0.00,,---,0.00,VWS V13.01,2013-08-13 03:53:00,
2013-08-12 23:58:00,83.4,76.2,30.03,SE,127,2.9,4.1,79,0.00,,---,0.00,VWS V13.01,2013-08-13 03:58:00,